COSMOS 1435

Satellite information

Favourite Embed

Satellite Type and Status

PAYLOADIN ORBIT

Key statistics

Satellite COSMOS 1435 at a glance.

Uptime

15625

Days in orbit

Revolutions

≈ 12.6

Per day

Orbit

LEO

Low Earth Orbit

Inclination

74.0

Latest

Satellite identification and parameters

Extended collection of information and parameters for COSMOS 1435.

Object identification

Identified? True

Debris? False

Object name: COSMOS 1435

International designator: 1983-002G

Object number (NORAD): 13767

Object ID (CCSDS): 13767

Country: COMMONWEALTH OF INDEPENDENT STATES (CIS)

Current information (Y/N): Y

RCS size: MEDIUM

Orbital parameters

Period: 114.676 minutes

Inclination: 74.0255 deg

SMA: 7818.846 km

Apoapsis: 1466.961 km

Periapsis: 1414.46 km

RAAN: 55.9997 deg

Eccentricy: 0.00335736

Argument of periapsis: 145.956 deg

Mean anomaly: 226.0893 deg

Mean motion: 12.5570843 rev/day

Mean motion (dot): 0.00000001 rev/day2

B* drag term: 0.00010158723 1/REarth

Two-line elements (TLE)

Creation date: Oct. 28, 2025, 7:11 p.m.

Reference frame: TEME

Reference center: EARTH

Epoch: Oct. 28, 2025, 1:35 p.m. UTC

TLE line 0: 0 COSMOS 1435

TLE line 1: 1 13767U 83002G 25301.56637212 .00000001 00000-0 10159-3 0 9990

TLE line 2: 2 13767 74.0255 55.9997 0033574 145.9560 226.0893 12.55708430960667

Live tracking on map

Real-time ground track for satellite COSMOS 1435.

In-orbit conjunctions

There are no conjunctions computed for COSMOS 1435, at the moment. Check back to stay up to date, as we update our databases every day.

Go to all conjunctions

Associated space launch

Military communications satellites

COSMOS 1435 was lifted into orbit during the mission ‘Kosmos-3M | Strela-1M 257-264’, on board a Kosmos-3M space rocket.

The launch took place on Jan. 19, 1983, 2:25 a.m. from 132/1 (132L).

For more information about the launch, click the button.

Launch to space Kosmos-3M | Strela-1M 257-264
Kosmos-3M | Strela-1M 257-264

Agency: N/A

Status: Launch Successful

Launch date: Jan. 19, 1983, 2:25 a.m. UTC

Rocket: Kosmos-3M

Launch pad: 132/1 (132L)

Location: Plesetsk Cosmodrome, Russian Federation

...

Latest news about this satellite

There are no fresh news available about this satellite. Check back as we update our databases every day.


Newsletter sign-up

Weekly statistics, charts and insights to help you stay on top of the space industry.